When you browse on this site, cookies collect data to enhance your experience and personalize the content and advertising you see.
Visit our Privacy Policy to learn more. By continuing to use the site, you agree to this use of cookies and data.

Hourly Weather Kamloops

Today, 20 September, Sunday

Time Temperature Precipitation Wind Pressure Humidity
00:00 +13°C° 0.3 mm 1 mps 705 mmHg 91%
01:00 +12°C° 0.3 mm 1 mps 705 mmHg 92%
02:00 +12°C° 0 mm 1 mps 705 mmHg 93%
03:00 +11°C° 0 mm 1 mps 705 mmHg 94%
04:00 +11°C° 0 mm 1 mps 705 mmHg 95%
05:00 +11°C° 0 mm 1 mps 705 mmHg 94%
06:00 +12°C° 0 mm 1 mps 705 mmHg 93%
07:00 +12°C° 0 mm 1 mps 705 mmHg 92%
08:00 +14°C° 0 mm 1 mps 705 mmHg 84%
09:00 +15°C° 0 mm 1 mps 705 mmHg 76%
10:00 +18°C° 0 mm 1 mps 705 mmHg 69%
11:00 +19°C° 0 mm 1 mps 705 mmHg 62%
12:00 +19°C° 0 mm 2 mps 705 mmHg 55%
13:00 +20°C° 0 mm 2 mps 704 mmHg 48%
14:00 +20°C° 0 mm 2 mps 704 mmHg 47%
15:00 +20°C° 0 mm 2 mps 704 mmHg 46%
16:00 +20°C° 0 mm 2 mps 704 mmHg 45%
17:00 +18°C° 0 mm 2 mps 703 mmHg 53%
18:00 +15°C° 0 mm 2 mps 703 mmHg 60%
19:00 +13°C° 0 mm 2 mps 703 mmHg 67%
20:00 +13°C° 0 mm 1 mps 703 mmHg 72%
21:00 +12°C° 0 mm 1 mps 703 mmHg 76%
22:00 +11°C° 0 mm 1 mps 703 mmHg 80%
23:00 +10°C° 0 mm 1 mps 703 mmHg 83%

Tomorrow, 21 September, Monday

Time Temperature Precipitation Wind Pressure Humidity
00:00 +10°C° 0 mm 1 mps 703 mmHg 86%
01:00 +10°C° 0 mm 1 mps 703 mmHg 89%
02:00 +9°C° 0 mm 1 mps 703 mmHg 91%
03:00 +9°C° 0 mm 1 mps 703 mmHg 92%
04:00 +9°C° 0 mm 1 mps 703 mmHg 94%
05:00 +10°C° 0 mm 1 mps 703 mmHg 92%
06:00 +10°C° 0 mm 1 mps 703 mmHg 89%
07:00 +9°C° 0 mm 0 mps 703 mmHg 87%
08:00 +12°C° 0 mm 0 mps 704 mmHg 77%
09:00 +14°C° 0 mm 0 mps 704 mmHg 68%
10:00 +16°C° 0 mm 0 mps 704 mmHg 58%
11:00 +17°C° 0 mm 0 mps 704 mmHg 54%
12:00 +18°C° 0 mm 0 mps 704 mmHg 50%
13:00 +21°C° 0 mm 1 mps 703 mmHg 46%
14:00 +21°C° 0 mm 1 mps 703 mmHg 47%
15:00 +18°C° 0 mm 0 mps 703 mmHg 48%
16:00 +18°C° 0 mm 0 mps 702 mmHg 48%
17:00 +16°C° 0 mm 0 mps 702 mmHg 55%
18:00 +15°C° 0 mm 0 mps 703 mmHg 61%
19:00 +13°C° 0 mm 0 mps 703 mmHg 68%
20:00 +13°C° 0 mm 0 mps 703 mmHg 69%
21:00 +12°C° 0 mm 0 mps 703 mmHg 70%
22:00 +13°C° 0 mm 1 mps 703 mmHg 71%
23:00 +13°C° 0 mm 1 mps 703 mmHg 74%

Day after tomorrow, 22 September, Tuesday

Time Temperature Precipitation Wind Pressure Humidity
00:00 +12°C° 0 mm 1 mps 703 mmHg 77%
01:00 +12°C° 0 mm 1 mps 703 mmHg 81%
02:00 +11°C° 0 mm 1 mps 703 mmHg 84%
03:00 +9°C° 0 mm 0 mps 703 mmHg 88%
04:00 +9°C° 0 mm 0 mps 703 mmHg 91%
05:00 +9°C° 0 mm 0 mps 703 mmHg 89%
06:00 +11°C° 0 mm 1 mps 703 mmHg 87%
07:00 +11°C° 0 mm 1 mps 703 mmHg 85%
08:00 +13°C° 0 mm 1 mps 703 mmHg 75%
09:00 +16°C° 0 mm 1 mps 703 mmHg 64%
10:00 +19°C° 0 mm 1 mps 703 mmHg 54%
11:00 +21°C° 0 mm 1 mps 703 mmHg 49%
12:00 +22°C° 0 mm 1 mps 703 mmHg 43%
13:00 +23°C° 0 mm 2 mps 702 mmHg 38%
14:00 +23°C° 0 mm 2 mps 702 mmHg 38%
15:00 +23°C° 0 mm 2 mps 702 mmHg 38%
16:00 +23°C° 0 mm 2 mps 701 mmHg 38%
17:00 +20°C° 0 mm 2 mps 701 mmHg 45%
18:00 +19°C° 0 mm 1 mps 701 mmHg 52%
19:00 +16°C° 0 mm 1 mps 701 mmHg 58%
20:00 +15°C° 0 mm 1 mps 701 mmHg 61%
21:00 +14°C° 0 mm 1 mps 701 mmHg 64%
22:00 +14°C° 0 mm 1 mps 700 mmHg 67%
23:00 +13°C° 0 mm 1 mps 700 mmHg 69%

23 September, Wednesday

Time Temperature Precipitation Wind Pressure Humidity
00:00 +13°C° 0 mm 2 mps 700 mmHg 72%
01:00 +13°C° 0 mm 2 mps 700 mmHg 74%
02:00 +13°C° 0 mm 2 mps 700 mmHg 75%
03:00 +12°C° 0 mm 2 mps 700 mmHg 76%
04:00 +12°C° 0 mm 2 mps 699 mmHg 77%
05:00 +13°C° 0 mm 2 mps 699 mmHg 73%
06:00 +13°C° 0 mm 2 mps 699 mmHg 70%
07:00 +14°C° 0 mm 2 mps 699 mmHg 67%
08:00 +15°C° 0 mm 2 mps 698 mmHg 63%
09:00 +16°C° 0 mm 3 mps 698 mmHg 58%
10:00 +17°C° 0 mm 3 mps 698 mmHg 53%
11:00 +15°C° 0.1 mm 4 mps 697 mmHg 59%
12:00 +14°C° 0.1 mm 4 mps 697 mmHg 64%
13:00 +14°C° 0.1 mm 4 mps 697 mmHg 70%
14:00 +14°C° 0 mm 4 mps 696 mmHg 69%
15:00 +14°C° 0 mm 4 mps 696 mmHg 69%
16:00 +14°C° 0 mm 4 mps 695 mmHg 69%
17:00 +14°C° 0.1 mm 4 mps 695 mmHg 73%
18:00 +13°C° 0.1 mm 3 mps 694 mmHg 77%
19:00 +13°C° 0.1 mm 3 mps 694 mmHg 81%
20:00 +12°C° 0.9 mm 3 mps 694 mmHg 84%
21:00 +11°C° 0.9 mm 3 mps 694 mmHg 87%
22:00 +11°C° 0.9 mm 3 mps 694 mmHg 90%
23:00 +10°C° 0 mm 2 mps 694 mmHg 89%

24 September, Thursday

Time Temperature Precipitation Wind Pressure Humidity
00:00 +10°C° 0 mm 2 mps 694 mmHg 89%
01:00 +9°C° 0 mm 2 mps 694 mmHg 89%
02:00 +9°C° 0 mm 2 mps 695 mmHg 89%
03:00 +9°C° 0 mm 2 mps 696 mmHg 89%
04:00 +8°C° 0 mm 2 mps 696 mmHg 89%
05:00 +9°C° 0 mm 2 mps 697 mmHg 89%
06:00 +9°C° 0 mm 2 mps 697 mmHg 88%
07:00 +9°C° 0 mm 2 mps 698 mmHg 87%
08:00 +10°C° 0 mm 2 mps 698 mmHg 81%
09:00 +13°C° 0 mm 2 mps 698 mmHg 75%
10:00 +13°C° 0 mm 3 mps 699 mmHg 69%
11:00 +14°C° 0 mm 4 mps 699 mmHg 62%
12:00 +15°C° 0 mm 4 mps 699 mmHg 55%
13:00 +16°C° 0 mm 5 mps 699 mmHg 48%
14:00 +16°C° 0 mm 5 mps 699 mmHg 49%
15:00 +16°C° 0 mm 5 mps 699 mmHg 49%
16:00 +15°C° 0 mm 5 mps 699 mmHg 50%
17:00 +14°C° 0 mm 4 mps 699 mmHg 57%
18:00 +12°C° 0 mm 3 mps 699 mmHg 64%
19:00 +10°C° 0 mm 2 mps 699 mmHg 71%
20:00 +10°C° 0 mm 2 mps 699 mmHg 73%
21:00 +10°C° 0 mm 2 mps 699 mmHg 75%
22:00 +10°C° 0 mm 2 mps 699 mmHg 76%
23:00 +10°C° 0 mm 2 mps 699 mmHg 78%

25 September, Friday

Time Temperature Precipitation Wind Pressure Humidity
00:00 +10°C° 0 mm 2 mps 699 mmHg 79%
01:00 +10°C° 0 mm 2 mps 698 mmHg 80%
02:00 +9°C° 0 mm 2 mps 698 mmHg 82%
03:00 +9°C° 0 mm 2 mps 698 mmHg 84%
04:00 +8°C° 0 mm 2 mps 698 mmHg 86%
05:00 +8°C° 0 mm 2 mps 698 mmHg 85%
06:00 +8°C° 0 mm 2 mps 699 mmHg 84%
07:00 +8°C° 0 mm 2 mps 699 mmHg 83%
08:00 +10°C° 0 mm 2 mps 699 mmHg 74%
09:00 +13°C° 0 mm 2 mps 699 mmHg 66%
10:00 +13°C° 0 mm 3 mps 699 mmHg 58%
11:00 +13°C° 0 mm 3 mps 698 mmHg 57%
12:00 +15°C° 0 mm 2 mps 698 mmHg 56%
13:00 +15°C° 0 mm 2 mps 698 mmHg 55%
14:00 +14°C° 1.1 mm 2 mps 697 mmHg 66%
15:00 +12°C° 1.1 mm 2 mps 697 mmHg 77%
16:00 +11°C° 1.1 mm 1 mps 696 mmHg 87%
17:00 +10°C° 0.4 mm 1 mps 696 mmHg 89%
18:00 +10°C° 0.4 mm 1 mps 697 mmHg 91%
19:00 +9°C° 0.4 mm 1 mps 697 mmHg 93%
20:00 +9°C° 0 mm 1 mps 697 mmHg 93%
21:00 +9°C° 0 mm 1 mps 697 mmHg 94%
22:00 +9°C° 0 mm 1 mps 697 mmHg 94%
23:00 +9°C° 0.1 mm 1 mps 698 mmHg 93%
Show more